< Cyclone 199102 1991 Season Cyclone 199104 >
Cyclone 199103 (CHRIS)
General InformationTrack Information on Google MapsDetailed Wind InformationList of All Images || ResourceGoogle EarthGE AnimationAtom FeedGeoJSON
Detalied Best Track (Time Zone = UTC)
Year Month Day Hour Lat. Long. Pressure (hPa) Wind (kt) Class Image Chart
1991 2 15 06 -14.9 122.0 997 35 3 Image --
1991 2 16 00 -14.9 122.0 995 39 3 Image --
1991 2 16 06 -14.9 121.8 992 43 3 Image --
1991 2 16 12 -14.8 121.8 990 47 3 Image --
1991 2 16 18 -14.6 121.8 988 49 4 Image --
1991 2 17 00 -14.5 121.8 987 51 4 Image --
1991 2 17 06 -14.8 122.2 987 51 4 Image --
1991 2 17 12 -15.3 122.6 987 51 4 Image --
1991 2 17 18 -15.4 122.2 987 51 4 Image --
1991 2 18 00 -15.5 121.8 987 51 4 Image --
1991 2 18 06 -15.5 120.7 985 54 4 Image --
1991 2 18 12 -15.5 119.3 982 58 4 Image --
1991 2 18 18 -15.5 117.8 978 64 5 Image --
1991 2 19 00 -15.7 116.6 976 66 5 Image --
1991 2 19 06 -15.8 115.8 978 64 5 Image --
1991 2 19 12 -15.9 115.2 980 60 4 Image --
1991 2 19 18 -16.1 114.5 983 56 4 Image --
1991 2 20 00 -16.3 113.9 985 54 4 Image --
1991 2 20 06 -16.4 113.2 987 51 4 Image --
1991 2 20 12 -16.6 112.4 990 47 3 Image --
1991 2 20 18 -16.6 111.7 992 43 3 Image --
1991 2 21 00 -16.6 111.1 995 39 3 Image --
1991 2 21 06 -16.5 110.2 997 35 3 Image --
1991 2 21 12 -16.1 109.7 998 35 3 Image --
1991 2 21 18 -15.9 109.3 1000 31 2 Image --
< Cyclone 199102 1991 Season Cyclone 199104 >

Help